This is the latest recevied weather packets stored in our database for station/object W5DRO-13. If no packets are shown the sender has not sent any weather packets the latest 10 day(s).
| Time | Temp. | Humidity | Pressure | Rain* | Wind** | Luminosity | Snow |
|---|---|---|---|---|---|---|---|
| 1777660923 | 21.67° C | 38% | 1019.8 hPa | 0 mm | - | - | - |
| 1777660619 | 22.22° C | 40% | 1019.8 hPa | 0 mm | - | - | - |
| 1777660316 | 22.22° C | 40% | 1019.8 hPa | 0 mm | - | - | - |
| 1777660013 | 22.22° C | 40% | 1019.8 hPa | 0 mm | - | - | - |
| 1777659709 | 22.22° C | 43% | 1020.2 hPa | 0 mm | - | - | - |
| 1777659406 | 21.11° C | 39% | 1020.3 hPa | 0 mm | - | - | - |
| 1777659103 | 21.67° C | 38% | 1020.3 hPa | 0 mm | - | - | - |
| 1777658802 | 21.67° C | 40% | 1020.3 hPa | 0 mm | - | - | - |
| 1777658497 | 21.11° C | 44% | 1020.3 hPa | 0 mm | - | - | - |
| 1777658194 | 20.56° C | 45% | 1020.3 hPa | 0 mm | - | - | - |
| 1777657892 | 20.56° C | 43% | 1020.4 hPa | 0 mm | - | - | - |
| 1777657588 | 20.56° C | 43% | 1020.4 hPa | 0 mm | - | - | - |
| 1777657286 | 20.56° C | 45% | 1020.6 hPa | 0 mm | - | - | - |
| 1777656983 | 20.56° C | 46% | 1020.6 hPa | 0 mm | - | - | - |
| 1777656680 | 21.11° C | 44% | 1020.5 hPa | 0 mm | - | - | - |
| 1777656375 | 21.67° C | 45% | 1020.6 hPa | 0 mm | - | - | - |
| 1777656070 | 21.11° C | 47% | 1020.6 hPa | 0 mm | - | - | - |
| 1777655767 | 20.56° C | 48% | 1020.8 hPa | 0 mm | - | - | - |
| 1777655464 | 20.56° C | 51% | 1020.7 hPa | 0 mm | - | - | - |
| 1777655161 | 20.56° C | 50% | 1020.5 hPa | 0 mm | - | - | - |
| 1777654858 | 20.56° C | 47% | 1020.7 hPa | 0 mm | - | - | - |
| 1777654555 | 20.56° C | 47% | 1020.8 hPa | 0 mm | - | - | - |
| 1777654253 | 19.44° C | 49% | 1020.7 hPa | 0 mm | - | - | - |
| 1777653950 | 20° C | 48% | 1020.5 hPa | 0 mm | - | - | - |
| 1777653647 | 20° C | 51% | 1020.7 hPa | 0 mm | - | - | - |
* Rain latest hour (hover to see other rain measurements)
** Current wind speed in m/s (hover to see current wind gust speed)